No particular awareness of the weather is required.    There are no Weather-warnings


Meteo18 Weather Cam more information Meteo18 Weather Cam


Thunder radar more information blitzortung!


Rain radar more information rain snow radar


Visit our other weather sites:

Template documentation
and downloads

And another site



Weather Underground History page Text

Daily Summary for February 27, 2018 Units:  Metric    English   Both
« Previous Day
Next Day »
Daily Weekly Monthly Yearly Custom
  High: Low: Average:
Temperature: -17.8 °C -22.4 °C -20.8 °C
Dew Point: -17.8 °C -25.1 °C -24.6 °C
Humidity: Humidity % 45 % 60 %
Wind Speed: 0 km/h 0 km/h 18.5 km/h
Wind Gust: 0 km/h - -
Wind:- - East
Pressure: 0 hPa 34347.6 hPa -
Precipitation: 0 mm    
Historical Graphs
 
 
Tabular Data for February 27, 2018
Time Temperature Dew Point Pressure Wind Wind Speed Wind Gust Humidity Rainfall Rate (Hourly)
-17.8 °C -17.8 °C 0 hPa Calm     Humidity % 0 mm
00:01 -20.8 °C -24.6 °C 34496.6 hPa NNE 15.6 km/h 23.3 km/h 59 % 0 mm
00:07 -20.8 °C -24.7 °C 34496.6 hPa NE 20.9 km/h 44.1 km/h 58 % 0 mm
00:13 -20.9 °C -24.6 °C 34496.6 hPa NE 33.6 km/h 46.7 km/h 59 % 0 mm
00:19 -20.9 °C -24.5 °C 34496.6 hPa NE 17.9 km/h 31.1 km/h 60 % 0 mm
00:25 -20.9 °C -24.6 °C 34496.6 hPa North 12.7 km/h 38.8 km/h 60 % 0 mm
00:31 -20.9 °C -24.4 °C 34496.6 hPa NE 20.9 km/h 41.4 km/h 61 % 0 mm
00:37 -21 °C -24.5 °C 34496.6 hPa NE 28.5 km/h 38.8 km/h 61 % 0 mm
00:43 -21 °C -24.5 °C 34496.6 hPa NE 28.5 km/h 46.7 km/h 61 % 0 mm
00:49 -21 °C -24.5 °C 34496.6 hPa NNE 31.4 km/h 44.1 km/h 61 % 0 mm
00:55 -21 °C -24.5 °C 34496.6 hPa NE 15.6 km/h 31.1 km/h 61 % 0 mm
01:01 -21 °C -24.5 °C 34496.6 hPa NNE 31.4 km/h 44.1 km/h 61 % 0 mm
01:07 -21.1 °C -24.4 °C 34496.6 hPa NE 28.5 km/h 41.4 km/h 62 % 0 mm
01:13 -21.1 °C -24.4 °C 34486.4 hPa NE 28.5 km/h 36.2 km/h 62 % 0 mm
01:19 -21.1 °C -24.5 °C 34486.4 hPa NNE 12.7 km/h 44.1 km/h 62 % 0 mm
01:25 -21.2 °C -24.6 °C 34486.4 hPa NNE 17.9 km/h 36.2 km/h 62 % 0 mm
01:31 -21.2 °C -24.4 °C 34486.4 hPa NE 17.9 km/h 36.2 km/h 63 % 0 mm
01:38 -21.2 °C -24.6 °C 34486.4 hPa NE 28.5 km/h 33.6 km/h 62 % 0 mm
01:44 -21.2 °C -24.5 °C 34486.4 hPa NNE 17.9 km/h 33.6 km/h 63 % 0 mm
01:50 -21.2 °C -24.5 °C 34486.4 hPa North 10.3 km/h 41.4 km/h 63 % 0 mm
01:56 -21.2 °C -24.6 °C 34486.4 hPa North 12.7 km/h 41.4 km/h 62 % 0 mm
02:02 -21.2 °C -24.5 °C 34476.3 hPa NE 28.5 km/h 44.1 km/h 63 % 0 mm
02:08 -21.3 °C -24.6 °C 34486.4 hPa NNE 28.5 km/h 31.1 km/h 63 % 0 mm
02:14 -21.3 °C -24.6 °C 34486.4 hPa North 7.6 km/h 31.1 km/h 63 % 0 mm
02:20 -21.3 °C -24.6 °C 34476.3 hPa NE 17.9 km/h 36.2 km/h 63 % 0 mm
02:26 -21.3 °C -24.7 °C 34476.3 hPa NE 26.2 km/h 62.1 km/h 62 % 0 mm
02:32 -21.3 °C -24.6 °C 34486.4 hPa East 5.1 km/h 44.1 km/h 63 % 0 mm
02:38 -21.3 °C -24.7 °C 34486.4 hPa NNE 17.9 km/h 41.4 km/h 62 % 0 mm
02:44 -21.3 °C -24.6 °C 34486.4 hPa NNE 23 km/h 31.1 km/h 63 % 0 mm
02:50 -21.4 °C -24.7 °C 34476.3 hPa ENE 17.9 km/h 31.1 km/h 63 % 0 mm
02:56 -21.4 °C -24.7 °C 34476.3 hPa North 7.6 km/h 31.1 km/h 63 % 0 mm
03:02 -21.5 °C -24.8 °C 34476.3 hPa NE 10.3 km/h 36.2 km/h 63 % 0 mm
03:08 -21.5 °C -24.8 °C 34476.3 hPa NNE 15.6 km/h 38.8 km/h 63 % 0 mm
03:14 -21.5 °C -24.8 °C 34476.3 hPa ENE 15.6 km/h 46.7 km/h 63 % 0 mm
03:20 -21.5 °C -24.8 °C 34476.3 hPa NNE 15.6 km/h 38.8 km/h 63 % 0 mm
03:26 -21.5 °C -24.8 °C 34476.3 hPa NNE 17.9 km/h 38.8 km/h 63 % 0 mm
03:32 -21.6 °C -24.8 °C 34462.7 hPa NE 31.4 km/h 38.8 km/h 63 % 0 mm
03:38 -21.6 °C -24.8 °C 34462.7 hPa NE 38.8 km/h 38.8 km/h 63 % 0 mm
03:44 -21.6 °C -24.8 °C 34462.7 hPa ENE 15.6 km/h 36.2 km/h 63 % 0 mm
03:50 -21.6 °C -24.9 °C 34462.7 hPa NNE 26.2 km/h 31.1 km/h 63 % 0 mm
03:56 -21.6 °C -24.8 °C 34462.7 hPa NE 10.3 km/h 28.5 km/h 64 % 0 mm
04:02 -21.7 °C -24.8 °C 34462.7 hPa NE 20.9 km/h 33.6 km/h 64 % 0 mm
04:08 -21.7 °C -24.8 °C 34462.7 hPa NE 17.9 km/h 36.2 km/h 64 % 0 mm
04:14 -21.7 °C -24.9 °C 34462.7 hPa NNE 20.9 km/h 31.1 km/h 64 % 0 mm
04:20 -21.7 °C -24.9 °C 34462.7 hPa NE 20.9 km/h 33.6 km/h 64 % 0 mm
04:26 -21.7 °C -24.8 °C 34462.7 hPa NE 36.5 km/h 46.7 km/h 65 % 0 mm
04:32 -21.7 °C -24.9 °C 34462.7 hPa NNE 12.7 km/h 36.2 km/h 64 % 0 mm
04:38 -21.7 °C -24.9 °C 34462.7 hPa NNE 26.2 km/h 44.1 km/h 64 % 0 mm
04:44 -21.7 °C -24.9 °C 34462.7 hPa NNE 26.2 km/h 38.8 km/h 63 % 0 mm
04:50 -21.7 °C -24.9 °C 34462.7 hPa NNE 7.6 km/h 36.2 km/h 63 % 0 mm
04:56 -21.8 °C -24.9 °C 34462.7 hPa NNE 5.1 km/h 31.1 km/h 64 % 0 mm
05:02 -21.8 °C -25 °C 34462.7 hPa ENE 15.6 km/h 46.7 km/h 63 % 0 mm
05:08 -21.8 °C -24.9 °C 34462.7 hPa NW 10.3 km/h 38.8 km/h 64 % 0 mm
05:14 -21.8 °C -24.9 °C 34462.7 hPa NE 26.2 km/h 28.5 km/h 64 % 0 mm
05:20 -21.8 °C -24.9 °C 34462.7 hPa ENE 2.3 km/h 18.2 km/h 65 % 0 mm
05:26 -21.9 °C -24.8 °C 34462.7 hPa NNE 7.6 km/h 25.9 km/h 66 % 0 mm
05:32 -21.9 °C -24.8 °C 34462.7 hPa NNE 12.7 km/h 31.1 km/h 66 % 0 mm
05:38 -22 °C -24.8 °C 34462.7 hPa NW 15.6 km/h 33.6 km/h 67 % 0 mm
05:44 -22.1 °C -24.8 °C 34462.7 hPa NE 28.5 km/h 31.1 km/h 68 % 0 mm
05:50 -22.1 °C -24.7 °C 34462.7 hPa North 10.3 km/h 18.2 km/h 69 % 0 mm
05:56 -22.1 °C -24.6 °C 34462.7 hPa NNE 15.6 km/h 18.2 km/h 70 % 0 mm
06:02 -22.1 °C -24.6 °C 34462.7 hPa North 17.9 km/h 28.5 km/h 70 % 0 mm
06:08 -22.2 °C -24.7 °C 34462.7 hPa NNW 12.7 km/h 33.6 km/h 70 % 0 mm
06:14 -22.1 °C -24.6 °C 34462.7 hPa NNE 10.3 km/h 36.2 km/h 70 % 0 mm
06:20 -22.1 °C -24.7 °C 34462.7 hPa NNW 10.3 km/h 28.5 km/h 69 % 0 mm
06:26 -22.2 °C -24.7 °C 34462.7 hPa NNE 5.1 km/h 15.6 km/h 70 % 0 mm
06:32 -22.2 °C -24.7 °C 34462.7 hPa NNW 5.1 km/h 28.5 km/h 70 % 0 mm
06:38 -22.2 °C -24.7 °C 34462.7 hPa NNE 5.1 km/h 18.2 km/h 70 % 0 mm
06:44 -22.2 °C -24.7 °C 34462.7 hPa NE 31.4 km/h 36.2 km/h 70 % 0 mm
06:50 -22.2 °C -24.7 °C 34462.7 hPa NNW 7.6 km/h 28.5 km/h 70 % 0 mm
06:56 -22.3 °C -24.8 °C 34462.7 hPa NE 5.1 km/h 23.3 km/h 70 % 0 mm
07:02 -22.3 °C -24.7 °C 34462.7 hPa North 12.7 km/h 18.2 km/h 71 % 0 mm
07:08 -22.3 °C -24.7 °C 34452.6 hPa North 2.3 km/h 15.6 km/h 71 % 0 mm
07:14 -22.3 °C -24.7 °C 34452.6 hPa North 15.6 km/h 33.6 km/h 71 % 0 mm
07:20 -22.3 °C -24.8 °C 34452.6 hPa NE 23 km/h 33.6 km/h 70 % 0 mm
07:26 -22.3 °C -24.8 °C 34452.6 hPa NE 17.9 km/h 33.6 km/h 70 % 0 mm
07:32 -22.3 °C -24.7 °C 34452.6 hPa NNW 5.1 km/h 25.9 km/h 71 % 0 mm
07:38 -22.4 °C -24.8 °C 34452.6 hPa NNE 7.6 km/h 20.8 km/h 71 % 0 mm
07:44 -22.4 °C -24.8 °C 34452.6 hPa North 17.9 km/h 31.1 km/h 71 % 0 mm
07:50 -22.3 °C -24.7 °C 34452.6 hPa NE 2.3 km/h 31.1 km/h 71 % 0 mm
07:56 -22.3 °C -24.7 °C 34452.6 hPa NW 15.6 km/h 28.5 km/h 71 % 0 mm
08:02 -22.3 °C -24.7 °C 34452.6 hPa NNE 17.9 km/h 18.2 km/h 71 % 0 mm
08:14 -22.2 °C -24.7 °C 34462.7 hPa NE 12.7 km/h 28.5 km/h 70 % 0 mm
08:20 -22.2 °C -24.7 °C 34462.7 hPa NNE 12.7 km/h 25.9 km/h 70 % 0 mm
08:26 -22.1 °C -24.6 °C 34462.7 hPa NE 5.1 km/h 23.3 km/h 70 % 0 mm
08:32 -22.1 °C -24.7 °C 34462.7 hPa North 10.3 km/h 33.6 km/h 69 % 0 mm
08:38 -21.9 °C -24.6 °C 34462.7 hPa NE 2.3 km/h 41.4 km/h 69 % 0 mm
08:44 -21.8 °C -24.4 °C 34462.7 hPa NNE 28.5 km/h 33.6 km/h 69 % 0 mm
08:50 -21.8 °C -24.4 °C 34462.7 hPa NE 12.7 km/h 31.1 km/h 69 % 0 mm
08:56 -21.7 °C -24.4 °C 34452.6 hPa NNE 20.9 km/h 38.8 km/h 68 % 0 mm
09:02 -21.7 °C -24.3 °C 34452.6 hPa NNE 26.2 km/h 28.5 km/h 69 % 0 mm
09:08 -21.7 °C -24.4 °C 34452.6 hPa NNE 7.6 km/h 38.8 km/h 68 % 0 mm
09:14 -21.6 °C -24.2 °C 34452.6 hPa NNE 33.6 km/h 44.1 km/h 69 % 0 mm
09:20 -21.6 °C -24.4 °C 34452.6 hPa ENE 28.5 km/h 41.4 km/h 67 % 0 mm
09:26 -21.6 °C -24.3 °C 34452.6 hPa NE 28.5 km/h 44.1 km/h 68 % 0 mm
09:32 -21.4 °C -24.3 °C 34452.6 hPa NNE 31.4 km/h 36.2 km/h 67 % 0 mm
09:38 -21.3 °C -24.2 °C 34452.6 hPa ENE 10.3 km/h 38.8 km/h 67 % 0 mm
09:44 -21.3 °C -24.4 °C 34442.4 hPa NE 26.2 km/h 54.4 km/h 64 % 0 mm
09:50 -21.2 °C -24.2 °C 34442.4 hPa NE 26.2 km/h 41.4 km/h 65 % 0 mm
09:56 -21 °C -24.4 °C 34442.4 hPa NE 26.2 km/h 49.2 km/h 62 % 0 mm
10:02 -21 °C -24.4 °C 34442.4 hPa NE 36.5 km/h 38.8 km/h 62 % 0 mm
10:08 -20.9 °C -24.4 °C 34442.4 hPa NE 10.3 km/h 41.4 km/h 61 % 0 mm
10:14 -20.7 °C -24.1 °C 34442.4 hPa NE 20.9 km/h 36.2 km/h 62 % 0 mm
10:20 -20.8 °C -24.7 °C 34442.4 hPa NE 20.9 km/h 49.2 km/h 58 % 0 mm
10:26 -20.7 °C -24.6 °C 34428.8 hPa ENE 20.9 km/h 46.7 km/h 58 % 0 mm
10:33 -20.7 °C -24.8 °C 34428.8 hPa ENE 28.5 km/h 49.2 km/h 56 % 0 mm
10:39 -20.6 °C -24.6 °C 34428.8 hPa NE 20.9 km/h 38.8 km/h 57 % 0 mm
10:44 -20.4 °C -24.4 °C 34428.8 hPa NNW 15.6 km/h 31.1 km/h 57 % 0 mm
10:50 -20.4 °C -24.5 °C 34428.8 hPa NNE 44.1 km/h 51.8 km/h 56 % 0 mm
10:56 -20.4 °C -24.5 °C 34428.8 hPa East 38.8 km/h 44.1 km/h 56 % 0 mm
11:02 -20.3 °C -24.3 °C 34428.8 hPa ENE 23 km/h 31.1 km/h 57 % 0 mm
11:08 -20.3 °C -24.6 °C 34418.7 hPa East 38.8 km/h 57 km/h 55 % 0 mm
11:14 -20.2 °C -24.5 °C 34418.7 hPa NNE 12.7 km/h 31.1 km/h 55 % 0 mm
11:20 -20.2 °C -24.9 °C 34418.7 hPa North 44.1 km/h 54.4 km/h 52 % 0 mm
11:26 -20.1 °C -24.7 °C 34418.7 hPa ENE 38.8 km/h 49.2 km/h 53 % 0 mm
11:32 -20.1 °C -24.6 °C 34418.7 hPa NE 36.5 km/h 57 km/h 53 % 0 mm
11:38 -20.1 °C -24.6 °C 34418.7 hPa ENE 17.9 km/h 41.4 km/h 53 % 0 mm
11:44 -19.9 °C -24.4 °C 34418.7 hPa East 26.2 km/h 28.5 km/h 53 % 0 mm
11:50 -19.9 °C -24.6 °C 34418.7 hPa NNE 38.8 km/h 64.7 km/h 52 % 0 mm
11:57 -20.1 °C -24.8 °C 34418.7 hPa NE 51.5 km/h 59.5 km/h 52 % 0 mm
12:02 -20.2 °C -24.7 °C 34418.7 hPa NE 38.8 km/h 57 km/h 53 % 0 mm
12:08 -20.2 °C -24.7 °C 34418.7 hPa NNE 46.3 km/h 59.5 km/h 53 % 0 mm
12:14 -20.2 °C -24.9 °C 34418.7 hPa NE 33.6 km/h 54.4 km/h 52 % 0 mm
12:20 -20.1 °C -24.7 °C 34405.1 hPa NNE 12.7 km/h 25.9 km/h 53 % 0 mm
12:26 -19.9 °C -24.6 °C 34405.1 hPa NNE 33.6 km/h 44.1 km/h 52 % 0 mm
12:32 -19.8 °C -24.7 °C 34405.1 hPa NE 33.6 km/h 54.4 km/h 51 % 0 mm
12:38 -19.9 °C -24.7 °C 34405.1 hPa East 28.5 km/h 38.8 km/h 51 % 0 mm
12:44 -19.6 °C -24.7 °C 34405.1 hPa East 26.2 km/h 44.1 km/h 49 % 0 mm
12:50 -19.6 °C -24.4 °C 34405.1 hPa SE 15.6 km/h 38.8 km/h 51 % 0 mm
12:56 -19.5 °C -24.6 °C 34405.1 hPa ENE 23 km/h 49.2 km/h 49 % 0 mm
13:02 -19.7 °C -24.6 °C 34395 hPa NE 46.3 km/h 49.2 km/h 50 % 0 mm
13:08 -19.5 °C -24.8 °C 34395 hPa ENE 36.5 km/h 49.2 km/h 48 % 0 mm
13:15 -19.3 °C -24.4 °C 34395 hPa NE 36.5 km/h 49.2 km/h 49 % 0 mm
13:21 -19.4 °C -24.8 °C 34395 hPa North 28.5 km/h 41.4 km/h 47 % 0 mm
13:27 -19.3 °C -24.6 °C 34395 hPa NE 17.9 km/h 46.7 km/h 48 % 0 mm
13:33 -19.3 °C -24.6 °C 34384.8 hPa NE 23 km/h 46.7 km/h 48 % 0 mm
13:39 -19.5 °C -24.9 °C 34384.8 hPa NE 28.5 km/h 57 km/h 47 % 0 mm
13:45 -19.7 °C -24.9 °C 34384.8 hPa NE 36.5 km/h 54.4 km/h 48 % 0 mm
13:51 -19.8 °C -24.9 °C 34384.8 hPa NE 23 km/h 44.1 km/h 49 % 0 mm
13:57 -19.7 °C -24.8 °C 34384.8 hPa NNE 23 km/h 36.2 km/h 49 % 0 mm
14:03 -19.3 °C -24.4 °C 34371.3 hPa NE 31.4 km/h 51.8 km/h 49 % 0 mm
14:09 -19.4 °C -25 °C 34371.3 hPa NE 28.5 km/h 38.8 km/h 46 % 0 mm
14:15 -19.3 °C -24.6 °C 34371.3 hPa NNE 15.6 km/h 25.9 km/h 48 % 0 mm
14:21 -19.2 °C -24.7 °C 34371.3 hPa NW 31.4 km/h 49.2 km/h 47 % 0 mm
14:27 -19.6 °C -24.7 °C 34371.3 hPa NNE 15.6 km/h 38.8 km/h 49 % 0 mm
14:33 -19.5 °C -24.6 °C 34371.3 hPa NE 23 km/h 41.4 km/h 49 % 0 mm
14:39 -19.3 °C -24.6 °C 34371.3 hPa ENE 12.7 km/h 25.9 km/h 48 % 0 mm
14:45 -19.1 °C -24.3 °C 34371.3 hPa NNE 17.9 km/h 33.6 km/h 49 % 0 mm
14:51 -19.2 °C -24.5 °C 34371.3 hPa NNE 26.2 km/h 44.1 km/h 48 % 0 mm
14:57 -19.6 °C -25 °C 34371.3 hPa NE 28.5 km/h 36.2 km/h 47 % 0 mm
15:03 -19.5 °C -25.1 °C 34361.1 hPa NE 36.5 km/h 38.8 km/h 46 % 0 mm
15:09 -19.4 °C -24.8 °C 34361.1 hPa ENE 15.6 km/h 38.8 km/h 47 % 0 mm
15:15 -19.3 °C -24.3 °C 34361.1 hPa NNW 17.9 km/h 25.9 km/h 50 % 0 mm
15:21 -19.4 °C -24.4 °C 34371.3 hPa NNE 20.9 km/h 28.5 km/h 50 % 0 mm
15:27 -19.5 °C -24.9 °C 34361.1 hPa NNE 26.2 km/h 41.4 km/h 47 % 0 mm
15:33 -19.4 °C -24.8 °C 34361.1 hPa NNE 20.9 km/h 20.9 km/h 47 % 0 mm
15:39 -19.3 °C -24.7 °C 34361.1 hPa ENE 7.6 km/h 36.2 km/h 47 % 0 mm
15:45 -19.3 °C -24.8 °C 34361.1 hPa ESE 17.9 km/h 23.3 km/h 46 % 0 mm
15:51 -19.3 °C -24.7 °C 34361.1 hPa NNW 2.3 km/h 28.5 km/h 47 % 0 mm
15:57 -19.4 °C -25.1 °C 34361.1 hPa NE 26.2 km/h 33.6 km/h 45 % 0 mm
16:03 -19.6 °C -25.1 °C 34361.1 hPa North 10.3 km/h 25.9 km/h 46 % 0 mm
16:09 -19.6 °C -24.8 °C 34347.6 hPa NNW 5.1 km/h 38.8 km/h 48 % 0 mm
16:15 -19.2 °C -24.2 °C 34347.6 hPa ENE 2.3 km/h 31.1 km/h 50 % 0 mm
16:21 -19.4 °C -24.7 °C 34347.6 hPa North 28.5 km/h 36.2 km/h 48 % 0 mm
16:27 -19.6 °C -24.8 °C 34347.6 hPa East 36.5 km/h 36.5 km/h 48 % 0 mm
16:33 -19.5 °C -24.6 °C 34347.6 hPa NNE 31.4 km/h 33.6 km/h 49 % 0 mm
16:39 -19.4 °C -24.5 °C 34347.6 hPa NNW 38.8 km/h 41.4 km/h 49 % 0 mm
16:45 -19.3 °C -24.2 °C 34347.6 hPa NNE 10.3 km/h 36.2 km/h 51 % 0 mm
16:51 -19.4 °C -24.6 °C 34347.6 hPa NE 12.7 km/h 36.2 km/h 49 % 0 mm
16:57 -19.6 °C -24.8 °C 34347.6 hPa NE 26.2 km/h 31.1 km/h 48 % 0 mm
17:03 -19.7 °C -24.8 °C 34347.6 hPa NNE 20.9 km/h 33.6 km/h 49 % 0 mm
17:09 -19.6 °C -24.3 °C 34347.6 hPa North 20.9 km/h 23.3 km/h 52 % 0 mm
17:15 -19.6 °C -24.4 °C 34347.6 hPa NNE 10.3 km/h 20.8 km/h 51 % 0 mm
17:21 -19.5 °C -24.3 °C 34347.6 hPa NE 20.9 km/h 23.3 km/h 51 % 0 mm
17:27 -19.6 °C -24.6 °C 34347.6 hPa NNE 20.9 km/h 33.6 km/h 50 % 0 mm
17:33 -19.8 °C -24.5 °C 34347.6 hPa NNE 20.9 km/h 28.5 km/h 52 % 0 mm
17:39 -19.9 °C -24.3 °C 34347.6 hPa NNE 7.6 km/h 15.6 km/h 54 % 0 mm
17:45 -19.9 °C -24.4 °C 34347.6 hPa NE 10.3 km/h 31.1 km/h 53 % 0 mm
17:51 -19.8 °C -24.4 °C 34347.6 hPa NNE 15.6 km/h 28.5 km/h 53 % 0 mm
17:57 -19.8 °C -24.4 °C 34347.6 hPa NE 15.6 km/h 33.6 km/h 53 % 0 mm
18:03 -19.8 °C -24.4 °C 34347.6 hPa NE 15.6 km/h 33.6 km/h 53 % 0 mm
18:09 -19.9 °C -24.4 °C 34347.6 hPa NE 7.6 km/h 18.2 km/h 53 % 0 mm
18:15 -19.9 °C -24.5 °C 34347.6 hPa ENE 12.7 km/h 20.8 km/h 53 % 0 mm
18:21 -20.1 °C -24.4 °C 34347.6 hPa NE 12.7 km/h 28.5 km/h 54 % 0 mm
18:27 -20.1 °C -24.7 °C 34347.6 hPa NE 23 km/h 31.1 km/h 52 % 0 mm
18:33 -20.1 °C -24.8 °C 34347.6 hPa NNE 17.9 km/h 38.8 km/h 52 % 0 mm
18:39 -20.2 °C -24.7 °C 34361.1 hPa NE 5.1 km/h 20.8 km/h 53 % 0 mm
18:45 -20.2 °C -24.6 °C 34361.1 hPa NE 12.7 km/h 15.6 km/h 54 % 0 mm
18:51 -20.3 °C -24.4 °C 34361.1 hPa North 5.1 km/h 7.7 km/h 56 % 0 mm
18:57 -20.4 °C -24.4 °C 34361.1 hPa North 2.3 km/h 10.3 km/h 57 % 0 mm
19:03 -20.4 °C -24.5 °C 34361.1 hPa NNE 26.2 km/h 28.5 km/h 56 % 0 mm
19:09 -20.4 °C -24.4 °C 34361.1 hPa NE 15.6 km/h 25.9 km/h 57 % 0 mm
19:15 -20.4 °C -24.4 °C 34361.1 hPa North 17.9 km/h 28.5 km/h 57 % 0 mm
19:21 -20.4 °C -24.4 °C 34361.1 hPa NNE 15.6 km/h 20.8 km/h 57 % 0 mm
19:27 -20.5 °C -24.5 °C 34361.1 hPa North 12.7 km/h 20.8 km/h 57 % 0 mm
19:33 -20.5 °C -24.4 °C 34361.1 hPa North 2.3 km/h 25.9 km/h 58 % 0 mm
19:39 -20.6 °C -24.4 °C 34361.1 hPa NNE 12.7 km/h 28.5 km/h 58 % 0 mm
19:45 -20.6 °C -24.4 °C 34361.1 hPa Calm   20.8 km/h 59 % 0 mm
19:51 -20.7 °C -24.3 °C 34361.1 hPa NNW 15.6 km/h 20.8 km/h 60 % 0 mm
19:57 -20.7 °C -24.3 °C 34361.1 hPa North 5.1 km/h 23.3 km/h 60 % 0 mm
20:04 -20.7 °C -24.3 °C 34361.1 hPa NNE 7.6 km/h 31.1 km/h 60 % 0 mm
20:10 -20.7 °C -24.2 °C 34361.1 hPa East 2.3 km/h 15.6 km/h 61 % 0 mm
20:16 -20.7 °C -24.2 °C 34361.1 hPa NNE 23 km/h 28.5 km/h 61 % 0 mm
20:22 -20.7 °C -24.2 °C 34361.1 hPa NNE 12.7 km/h 23.3 km/h 61 % 0 mm
20:28 -20.8 °C -24.3 °C 34361.1 hPa NNW 2.3 km/h 31.1 km/h 61 % 0 mm
20:34 -20.8 °C -24.2 °C 34361.1 hPa NNW 7.6 km/h 33.6 km/h 62 % 0 mm
20:40 -20.8 °C -24.2 °C 34361.1 hPa NE 20.9 km/h 23.3 km/h 62 % 0 mm
20:46 -20.9 °C -24.2 °C 34361.1 hPa Calm   18.2 km/h 63 % 0 mm
20:52 -20.9 °C -24.2 °C 34361.1 hPa North 17.9 km/h 23.3 km/h 63 % 0 mm
20:58 -20.9 °C -24.2 °C 34361.1 hPa NNE 15.6 km/h 23.3 km/h 63 % 0 mm
21:04 -20.9 °C -24.2 °C 34361.1 hPa NNE 17.9 km/h 28.5 km/h 63 % 0 mm
21:10 -20.9 °C -24.2 °C 34361.1 hPa NNE 20.9 km/h 36.2 km/h 63 % 0 mm
21:16 -21 °C -24.3 °C 34361.1 hPa NNE 20.9 km/h 33.6 km/h 63 % 0 mm
21:22 -21 °C -24.2 °C 34361.1 hPa NE 28.5 km/h 28.5 km/h 64 % 0 mm
21:28 -21.1 °C -24.2 °C 34361.1 hPa NNE 5.1 km/h 25.9 km/h 64 % 0 mm
21:34 -21.1 °C -24.2 °C 34361.1 hPa NNE 28.5 km/h 38.8 km/h 65 % 0 mm
21:40 -21.2 °C -24.2 °C 34361.1 hPa NE 23 km/h 33.6 km/h 65 % 0 mm
21:46 -21.2 °C -24.2 °C 34361.1 hPa NNE 17.9 km/h 31.1 km/h 65 % 0 mm
21:52 -21.2 °C -24.2 °C 34361.1 hPa NE 7.6 km/h 31.1 km/h 65 % 0 mm
21:58 -21.2 °C -24.3 °C 34361.1 hPa NE 20.9 km/h 28.5 km/h 65 % 0 mm
22:06 -21.3 °C -24.2 °C 34361.1 hPa North 17.9 km/h 25.9 km/h 66 % 0 mm
22:12 -21.3 °C -24.2 °C 34361.1 hPa NNE 12.7 km/h 25.9 km/h 66 % 0 mm
22:18 -21.3 °C -24.3 °C 34361.1 hPa NE 5.1 km/h 31.1 km/h 66 % 0 mm
22:24 -21.3 °C -24.2 °C 34361.1 hPa North 2.3 km/h 18.2 km/h 67 % 0 mm
22:30 -21.4 °C -24.3 °C 34361.1 hPa NE 12.7 km/h 18.2 km/h 67 % 0 mm
22:36 -21.4 °C -24.3 °C 34361.1 hPa NNE 10.3 km/h 18.2 km/h 67 % 0 mm
22:42 -21.5 °C -24.2 °C 34361.1 hPa NE 10.3 km/h 18.2 km/h 68 % 0 mm
22:48 -21.6 °C -24.3 °C 34361.1 hPa NNE 12.7 km/h 18.2 km/h 68 % 0 mm
22:54 -21.6 °C -24.3 °C 34347.6 hPa NNE 12.7 km/h 18.2 km/h 68 % 0 mm
23:00 -21.6 °C -24.2 °C 34347.6 hPa NNE 10.3 km/h 12.9 km/h 69 % 0 mm
23:06 -21.7 °C -24.3 °C 34361.1 hPa NNE 7.6 km/h 12.9 km/h 69 % 0 mm
23:12 -21.7 °C -24.3 °C 34347.6 hPa NE 10.3 km/h 12.9 km/h 69 % 0 mm
23:18 -21.7 °C -24.2 °C 34347.6 hPa NNE 7.6 km/h 15.6 km/h 70 % 0 mm
23:24 -21.8 °C -24.3 °C 34361.1 hPa NE 5.1 km/h 12.9 km/h 70 % 0 mm
23:30 -21.8 °C -24.3 °C 34361.1 hPa NE 2.3 km/h 12.9 km/h 70 % 0 mm
23:36 -21.8 °C -24.3 °C 34361.1 hPa NE 7.6 km/h 15.6 km/h 70 % 0 mm
23:42 -21.8 °C -24.3 °C 34347.6 hPa NE 10.3 km/h 15.6 km/h 71 % 0 mm
23:48 -21.8 °C -24.3 °C 34347.6 hPa NNE 7.6 km/h 15.6 km/h 71 % 0 mm
23:54 -21.9 °C -24.3 °C 34347.6 hPa NE 7.6 km/h 10.3 km/h 71 % 0 mm
Meteo18
Compliments of Weather Underground - 4 mb

Script developed by  Jim McMurry - jmcmurry@mwt.net Adapted for the template by  Wim van der Kuil - Leuven-Template.eu

You find our weather info also at:

European Weather Network

Weather Underground

Equipment we use:

Weather-station
Davis Vue

Weather-program
Meteobridge

Weather-server
Raspberry PI 2 B+

Provider
1 and 1

Davis Vue

Meteobridge

Raspberry PI 2 B+

1 and 1